Home   Weather   Las Cruces   Past weeks
Flag for USA

Past Weather in Las Cruces, New Mexico, USA — Yesterday and Last 2 Weeks

Now
87 °F

Sunny.


Feels Like: 83 °F
Forecast: 97 / 67 °F
Wind: 7 mph from Southeast

Location: Las Cruces International

Current Time: Jun 26, 2019 at 10:49:26 am

Latest Report: Jun 26, 2019 at 10:15 am


Visibility: 10 mi

Pressure: 30.14 "Hg (26.37 "Hg at 1187m altitude)

Humidity: 23%

Dew Point: 45 °F

Location of Las CrucesLocation

Past Weather in Las Cruces — Graph

°F

Las Cruces Temperature Yesterday

Maximum temperature yesterday: 99 °F (at 3:35 pm)
Minimum temperature yesterday: 58 °F (at 5:35 am)
Average temperature yesterday: 80 °F

High & Low Weather Summary for the Past Weeks

 TemperatureHumidityPressure
High99 °F (Jun 25, 3:35 pm)100% (Jun 12, 3:15 am)30.32 "Hg (Jun 12, 3:15 am)
Low58 °F (Jun 25, 5:35 am)5% (Jun 22, 4:55 pm)29.88 "Hg (Jun 21, 5:55 pm)
Average79 °F22%30.03 "Hg
* Reported Jun 11 9:15 am — Jun 26 9:35 am, Las Cruces. Weather by CustomWeather, © 2019

Note: Actual official high and low records may vary slightly from our data, if they occured in-between our weather recording intervals... More about our weather records

Advertising

Las Cruces Weather History for the Previous 24 Hours

Scroll right to see more
 ConditionsComfort  
Time TempWeatherWind HumidityBarometerVisibility
9:35 am
Wed, Jun 26
83 °FSunny.6 mph26%30.14 "Hg10 mi
9:15 am83 °FSunny.8 mph26%30.14 "Hg10 mi
8:55 am82 °FSunny.6 mph26%30.14 "Hg10 mi
8:35 am80 °FSunny.8 mph28%30.14 "Hg10 mi
8:15 am78 °FSunny.5 mph31%30.12 "Hg10 mi
7:35 am75 °FSunny.6 mph32%30.11 "Hg10 mi
7:15 am74 °FSunny.6 mph32%30.10 "Hg10 mi
6:55 am73 °FSunny.6 mph33%30.09 "Hg10 mi
6:35 am71 °FSunny.6 mph34%30.09 "Hg10 mi
6:15 am71 °FSunny.6 mph33%30.08 "Hg10 mi
5:55 am71 °FClear.7 mph32%30.08 "Hg10 mi
5:35 am71 °FClear.7 mph33%30.08 "Hg10 mi
5:15 am71 °FClear.7 mph32%30.07 "Hg10 mi
4:55 am71 °FClear.6 mph33%30.07 "Hg10 mi
4:35 am70 °FClear.7 mph33%30.07 "Hg10 mi
4:15 am72 °FClear.7 mph32%30.07 "Hg10 mi
3:55 am72 °FClear.7 mph32%30.06 "Hg10 mi
3:35 am71 °FClear.8 mph32%30.06 "Hg10 mi
3:15 am72 °FClear.7 mph31%30.06 "Hg10 mi
2:35 am72 °FClear.7 mph30%30.06 "Hg10 mi
2:15 am71 °FClear.6 mph31%30.05 "Hg10 mi
1:55 am73 °FClear.3 mph28%30.05 "Hg10 mi
1:35 am74 °FClear.6 mph27%30.05 "Hg10 mi
1:15 am77 °FClear.8 mph24%30.05 "Hg10 mi
12:55 am72 °FClear.5 mph27%30.05 "Hg10 mi
12:35 am75 °FClear.7 mph25%30.06 "Hg10 mi
12:15 am70 °FClear.5 mph27%30.04 "Hg10 mi
11:55 pm
Tue, Jun 25
76 °FClear.5 mph24%30.03 "Hg10 mi
11:35 pm76 °FClear.5 mph21%30.03 "Hg10 mi
11:15 pm76 °FClear.8 mph20%30.03 "Hg10 mi
10:55 pm76 °FClear.9 mph19%30.03 "Hg10 mi
10:35 pm80 °FClear.7 mph15%30.02 "Hg10 mi
10:15 pm72 °FClear.8 mph18%30.00 "Hg10 mi
9:55 pm74 °FClear.No wind17%29.99 "Hg10 mi
9:35 pm76 °FClear.No wind15%29.99 "Hg10 mi
9:15 pm77 °FClear.No wind15%29.98 "Hg10 mi
8:55 pm78 °FClear.5 mph14%29.98 "Hg10 mi
8:35 pm84 °FClear.6 mph11%29.97 "Hg10 mi
8:15 pm87 °FSunny.7 mph10%29.97 "Hg10 mi
7:35 pm93 °FSunny.9 mph7%29.96 "Hg10 mi
7:15 pm95 °FSunny.8 mph7%29.96 "Hg10 mi
6:55 pm96 °FSunny.8 mph7%29.96 "Hg10 mi
6:35 pm96 °FSunny.7 mph7%29.95 "Hg10 mi
6:15 pm97 °FSunny.6 mph6%29.95 "Hg10 mi
5:55 pm97 °FSunny.3 mph6%29.95 "Hg10 mi
5:35 pm97 °FSunny.5 mph6%29.96 "Hg10 mi
5:15 pm98 °FSunny.3 mph6%29.96 "Hg10 mi
4:55 pm98 °FSunny.14 mph6%29.97 "Hg10 mi
4:35 pm97 °FSunny.No wind6%29.97 "Hg10 mi
4:15 pm98 °FSunny.7 mph6%29.98 "Hg10 mi
3:55 pm97 °FSunny.3 mph7%29.98 "Hg10 mi
3:35 pm99 °FSunny.16 mph6%29.99 "Hg10 mi
3:15 pm98 °FSunny.9 mph7%30.00 "Hg10 mi
2:55 pm98 °FSunny.10 mph7%30.01 "Hg10 mi
2:35 pm97 °FSunny.10 mph7%30.01 "Hg10 mi
2:15 pm97 °FSunny.12 mph8%30.02 "Hg10 mi
1:55 pm94 °FSunny.5 mph8%30.03 "Hg10 mi
1:35 pm95 °FSunny.8 mph8%30.04 "Hg10 mi
1:15 pm95 °FSunny.7 mph8%30.04 "Hg10 mi
12:55 pm94 °FSunny.7 mph8%30.05 "Hg10 mi
12:35 pm94 °FSunny.10 mph9%30.06 "Hg10 mi
11:55 am92 °FSunny.8 mph9%30.06 "Hg10 mi
11:35 am90 °FSunny.8 mph10%30.07 "Hg10 mi
11:15 am89 °FSunny.5 mph10%30.07 "Hg10 mi
10:55 am88 °FSunny.6 mph10%30.07 "Hg10 mi
10:35 am86 °FSunny.5 mph11%30.07 "Hg10 mi
10:15 am85 °FSunny.3 mph11%30.06 "Hg10 mi
Weather by CustomWeather, © 2019

See weather overview